• In Uzbekistan
  • List of Countries
  • For 7 days
  • Water Temperature
  • Satellite Maps
  • Weather Map
  • Weather Widgets
  • user-avatar
    Login

    Hourly Weather Djelfa

    Today, 21 September, Thursday

    Time Temperature Precipitation Wind Pressure Humidity
    00:00 +20°C° 0 mm 3 mps 668 mmHg 42%
    01:00 +19°C° 0 mm 3 mps 667 mmHg 45%
    02:00 +19°C° 0 mm 3 mps 667 mmHg 48%
    03:00 +18°C° 0 mm 3 mps 667 mmHg 52%
    04:00 +18°C° 0 mm 3 mps 667 mmHg 53%
    05:00 +17°C° 0 mm 3 mps 667 mmHg 54%
    06:00 +17°C° 0 mm 2 mps 667 mmHg 56%
    07:00 +19°C° 0 mm 3 mps 667 mmHg 50%
    08:00 +20°C° 0 mm 3 mps 668 mmHg 44%
    09:00 +22°C° 0 mm 4 mps 669 mmHg 38%
    10:00 +23°C° 0 mm 4 mps 669 mmHg 34%
    11:00 +25°C° 0 mm 4 mps 669 mmHg 30%
    12:00 +26°C° 0 mm 3 mps 669 mmHg 26%
    13:00 +27°C° 0 mm 3 mps 668 mmHg 24%
    14:00 +27°C° 0 mm 3 mps 668 mmHg 23%
    15:00 +28°C° 0 mm 3 mps 668 mmHg 21%
    16:00 +27°C° 0 mm 3 mps 667 mmHg 22%
    17:00 +26°C° 0 mm 4 mps 667 mmHg 23%
    18:00 +26°C° 0 mm 4 mps 667 mmHg 24%
    19:00 +25°C° 0 mm 5 mps 667 mmHg 26%
    20:00 +23°C° 0 mm 5 mps 668 mmHg 28%
    21:00 +22°C° 0 mm 6 mps 668 mmHg 30%
    22:00 +22°C° 0 mm 5 mps 668 mmHg 33%
    23:00 +21°C° 0 mm 5 mps 667 mmHg 35%

    Tomorrow, 22 September, Friday

    Time Temperature Precipitation Wind Pressure Humidity
    00:00 +20°C° 0 mm 4 mps 667 mmHg 37%
    01:00 +20°C° 0 mm 4 mps 667 mmHg 39%
    02:00 +19°C° 0 mm 3 mps 667 mmHg 41%
    03:00 +19°C° 0 mm 3 mps 667 mmHg 42%
    04:00 +19°C° 0 mm 2 mps 667 mmHg 43%
    05:00 +18°C° 0 mm 2 mps 667 mmHg 44%
    06:00 +18°C° 0 mm 2 mps 667 mmHg 45%
    07:00 +20°C° 0 mm 2 mps 667 mmHg 40%
    08:00 +22°C° 0 mm 3 mps 668 mmHg 35%
    09:00 +24°C° 0 mm 3 mps 669 mmHg 30%
    10:00 +26°C° 0 mm 3 mps 669 mmHg 27%
    11:00 +27°C° 0 mm 3 mps 669 mmHg 24%
    12:00 +28°C° 0 mm 3 mps 669 mmHg 22%
    13:00 +28°C° 0 mm 3 mps 669 mmHg 21%
    14:00 +29°C° 0 mm 3 mps 668 mmHg 20%
    15:00 +29°C° 0 mm 3 mps 668 mmHg 19%
    16:00 +29°C° 0.1 mm 3 mps 668 mmHg 21%
    17:00 +28°C° 0.1 mm 3 mps 668 mmHg 22%
    18:00 +27°C° 0.1 mm 4 mps 668 mmHg 23%
    19:00 +27°C° 0.1 mm 4 mps 669 mmHg 25%
    20:00 +26°C° 0.1 mm 3 mps 669 mmHg 27%
    21:00 +26°C° 0.1 mm 3 mps 669 mmHg 28%
    22:00 +25°C° 0 mm 3 mps 669 mmHg 30%
    23:00 +24°C° 0 mm 3 mps 669 mmHg 32%

    Day after tomorrow, 23 September, Saturday

    Time Temperature Precipitation Wind Pressure Humidity
    00:00 +24°C° 0 mm 2 mps 668 mmHg 34%
    01:00 +23°C° 0 mm 2 mps 668 mmHg 34%
    02:00 +23°C° 0 mm 2 mps 668 mmHg 35%
    03:00 +23°C° 0 mm 2 mps 668 mmHg 36%
    04:00 +23°C° 0 mm 2 mps 668 mmHg 36%
    05:00 +22°C° 0 mm 3 mps 668 mmHg 37%
    06:00 +21°C° 0 mm 3 mps 668 mmHg 37%
    07:00 +22°C° 0 mm 4 mps 669 mmHg 34%
    08:00 +25°C° 0 mm 4 mps 669 mmHg 31%
    09:00 +26°C° 0 mm 5 mps 670 mmHg 28%
    10:00 +27°C° 0 mm 5 mps 670 mmHg 25%
    11:00 +28°C° 0 mm 5 mps 670 mmHg 23%
    12:00 +29°C° 0 mm 5 mps 670 mmHg 20%
    13:00 +30°C° 0 mm 5 mps 669 mmHg 19%
    14:00 +30°C° 0 mm 5 mps 669 mmHg 18%
    15:00 +30°C° 0 mm 5 mps 669 mmHg 17%
    16:00 +29°C° 0 mm 5 mps 668 mmHg 18%
    17:00 +29°C° 0 mm 4 mps 668 mmHg 18%
    18:00 +28°C° 0 mm 4 mps 668 mmHg 19%
    19:00 +27°C° 0 mm 4 mps 668 mmHg 21%
    20:00 +26°C° 0 mm 4 mps 668 mmHg 22%
    21:00 +26°C° 0 mm 4 mps 668 mmHg 23%
    22:00 +25°C° 0 mm 4 mps 668 mmHg 25%
    23:00 +23°C° 0 mm 4 mps 668 mmHg 26%

    24 September, Sunday

    Time Temperature Precipitation Wind Pressure Humidity
    00:00 +23°C° 0 mm 4 mps 668 mmHg 28%
    01:00 +22°C° 0 mm 4 mps 668 mmHg 30%
    02:00 +22°C° 0 mm 4 mps 667 mmHg 32%
    03:00 +22°C° 0 mm 3 mps 667 mmHg 33%
    04:00 +21°C° 0 mm 3 mps 667 mmHg 35%
    05:00 +21°C° 0 mm 3 mps 667 mmHg 37%
    06:00 +21°C° 0 mm 3 mps 667 mmHg 38%
    07:00 +23°C° 0 mm 4 mps 668 mmHg 35%
    08:00 +25°C° 0 mm 4 mps 669 mmHg 31%
    09:00 +27°C° 0 mm 5 mps 669 mmHg 28%
    10:00 +28°C° 0 mm 5 mps 669 mmHg 25%
    11:00 +29°C° 0 mm 5 mps 669 mmHg 22%
    12:00 +30°C° 0 mm 5 mps 669 mmHg 19%
    13:00 +32°C° 0 mm 5 mps 669 mmHg 19%
    14:00 +32°C° 0 mm 5 mps 668 mmHg 18%
    15:00 +32°C° 0 mm 5 mps 668 mmHg 17%
    16:00 +30°C° 0 mm 5 mps 668 mmHg 19%
    17:00 +29°C° 0 mm 4 mps 668 mmHg 21%
    18:00 +28°C° 0 mm 4 mps 668 mmHg 22%
    19:00 +27°C° 0 mm 3 mps 668 mmHg 25%
    20:00 +27°C° 0 mm 2 mps 668 mmHg 27%
    21:00 +26°C° 0 mm 2 mps 668 mmHg 30%
    22:00 +25°C° 0.2 mm 1 mps 668 mmHg 32%
    23:00 +24°C° 0.2 mm 1 mps 667 mmHg 35%

    25 September, Monday

    Time Temperature Precipitation Wind Pressure Humidity
    00:00 +24°C° 0.2 mm 1 mps 667 mmHg 37%
    01:00 +23°C° 0.1 mm 1 mps 667 mmHg 39%
    02:00 +23°C° 0.1 mm 1 mps 666 mmHg 40%
    03:00 +22°C° 0.1 mm 1 mps 666 mmHg 42%
    04:00 +22°C° 0 mm 1 mps 666 mmHg 44%
    05:00 +21°C° 0 mm 1 mps 666 mmHg 47%
    06:00 +21°C° 0 mm 1 mps 666 mmHg 49%
    07:00 +21°C° 0 mm 2 mps 667 mmHg 45%
    08:00 +24°C° 0 mm 3 mps 667 mmHg 41%
    09:00 +25°C° 0 mm 3 mps 668 mmHg 37%
    10:00 +26°C° 0 mm 4 mps 668 mmHg 31%
    11:00 +27°C° 0 mm 4 mps 668 mmHg 26%
    12:00 +28°C° 0 mm 5 mps 668 mmHg 20%
    13:00 +29°C° 0 mm 5 mps 667 mmHg 19%
    14:00 +29°C° 0 mm 5 mps 667 mmHg 17%
    15:00 +29°C° 0 mm 5 mps 667 mmHg 16%
    16:00 +29°C° 0 mm 4 mps 667 mmHg 18%
    17:00 +28°C° 0 mm 4 mps 667 mmHg 19%
    18:00 +27°C° 0 mm 3 mps 667 mmHg 21%
    19:00 +26°C° 0 mm 3 mps 667 mmHg 23%
    20:00 +25°C° 0 mm 2 mps 667 mmHg 26%
    21:00 +24°C° 0 mm 1 mps 667 mmHg 28%
    22:00 +24°C° 0 mm 1 mps 667 mmHg 29%
    23:00 +23°C° 0 mm 1 mps 666 mmHg 30%

    26 September, Tuesday

    Time Temperature Precipitation Wind Pressure Humidity
    00:00 +23°C° 0 mm 1 mps 666 mmHg 31%
    01:00 +22°C° 0 mm 1 mps 666 mmHg 33%
    02:00 +21°C° 0 mm 1 mps 665 mmHg 35%
    03:00 +18°C° 0 mm 0 mps 665 mmHg 36%
    04:00 +20°C° 0 mm 1 mps 665 mmHg 37%
    05:00 +20°C° 0 mm 1 mps 665 mmHg 38%
    06:00 +20°C° 0 mm 1 mps 665 mmHg 39%
    07:00 +21°C° 0 mm 1 mps 666 mmHg 35%
    08:00 +23°C° 0 mm 1 mps 666 mmHg 30%
    09:00 +25°C° 0 mm 1 mps 667 mmHg 25%
    10:00 +26°C° 0 mm 2 mps 667 mmHg 22%
    11:00 +27°C° 0 mm 2 mps 667 mmHg 19%
    12:00 +29°C° 0 mm 3 mps 667 mmHg 16%
    13:00 +29°C° 0 mm 3 mps 667 mmHg 15%
    14:00 +30°C° 0 mm 4 mps 667 mmHg 14%
    15:00 +30°C° 0 mm 4 mps 667 mmHg 13%
    16:00 +29°C° 0 mm 4 mps 667 mmHg 15%
    17:00 +29°C° 0 mm 4 mps 666 mmHg 16%
    18:00 +28°C° 0 mm 3 mps 666 mmHg 17%
    19:00 +27°C° 0 mm 3 mps 666 mmHg 20%
    20:00 +26°C° 0 mm 3 mps 667 mmHg 22%
    21:00 +25°C° 0 mm 2 mps 667 mmHg 25%
    22:00 +24°C° 0 mm 2 mps 667 mmHg 29%
    23:00 +24°C° 0 mm 2 mps 667 mmHg 33%
    Show more